User: anonymous
Location: Holcomb Observatory
(44.4922°N, 73.1654°W)
Time: 08:51:20
(UTC-04:00)
Language:

SL-16 R/B - Orbit

View from above orbital plane
View from above orbital plane
View from above satellite
View from above satellite

Ground track
Ground track

The orbit data is extracted from the following two-line orbital elements,

1 27006U 01056F   14237.68016700  .00000016  00000-0  64706-4 0  2146
2 27006 099.1736 042.4104 0015548 110.3360 298.7713 13.70916946635843
Epoch (UTC): 25 August 2014 16:19:26
Eccentricity: 0.0015548
inclination: 99.1736°
perigee height: 985 km
apogee height: 1008 km
right ascension of ascending node: 42.4104°
argument of perigee: 110.3360°
revolutions per day: 13.70916946
mean anomaly at epoch: 298.7713°
orbit number at epoch: 63584

The dashed part of the orbit path shows where the satellite is in the earth's shadow,  

DLR